Location: Audinghen
(50.8518°N, 1.6129°E)
Time: 05:49:00
(UTC+00:00)

ERBS - Pass Details

Date: 07 August 2020
Orbit: 413 x 420 km, 57.0° (Epoch: 23 September)

Event Time Altitude Azimuth Distance (km) Brightness Sun altitude
Rises 01:20:02 0° 301° (WNW) 2,357 6.2 -20.5°
Reaches altitude 10° 01:22:08 10° 304° (NW) 1,491 5.2 -20.4°
Maximum altitude 01:25:27 69° 29° (NNE) 448 2.5 -20.2°
Drops below altitude 10° 01:28:45 10° 113° (ESE) 1,484 5.0 -20.0°
Sets 01:30:50 0° 116° (ESE) 2,344 6.0 -19.9°
